Regional Weather Roundup
Issued by NWS

Home | Current Version | Previous Version | Graphics & Text | Print | Product List | Glossary On
Versions: 1 2 3 4 5 6 7 8 9 10 11 12 13 14 15 16 17 18 19 20 21 22 23 24 25 26 27 28 29 30 31 32 33 34 35 36 37 38 39 40 41 42 43 44 45 46 47 48 49 50
000
ASUS43 KMKX 252211
RWRWI

WISCONSIN REGIONAL WEATHER ROUNDUP
NATIONAL WEATHER SERVICE MILWAUKEE/SULLIVAN WI
400 PM CST THU DEC 25 2014

NOTE: "FAIR" INDICATES FEW OR NO CLOUDS BELOW 12,000 FEET WITH NO
SIGNIFICANT WEATHER AND/OR OBSTRUCTIONS TO VISIBILITY.

WIZ001-002-006>008-014>016-023>028-252300-
NORTHWEST WISCONSIN

CITY           SKY/WX    TMP DP  RH WIND       PRES   REMARKS
SUPERIOR ARPT  CLOUDY    33  29  87 CALM      29.80R
ASHLAND        CLOUDY    33  28  81 SW9       29.80R WCI  25
HAYWARD        CLOUDY    32  27  81 SW8       29.79R WCI  25
SIREN          CLOUDY    33  30  90 SW5       29.79R WCI  28
CUMBERLAND     LGT SNOW  32  30  93 S3        29.79R
RICE LAKE      LGT SNOW  32  30  94 SE3       29.81R
CHETEK         MIX PCPN  32  30  93 SE3       29.80R
LADYSMITH      LGT SNOW  32  30  93 S6        29.81R WCI  26
EAU CLAIRE     CLOUDY    34  28  79 SE5       29.81R WCI  30
MENOMONIE      CLOUDY    34  31  87 SE3       29.81R
NEW RICHMOND   LGT SNOW  32  32  99 CALM      29.79R
OSCEOLA        LGT SNOW  32  32 100 CALM      29.82R
$$

WIZ003>005-009-010-017-018-252300-
NORTH CENTRAL WISCONSIN

CITY           SKY/WX    TMP DP  RH WIND       PRES   REMARKS
MANITOWISH WTR CLOUDY    30  29  95 SW7       29.77R WCI  23
ARBOR VITAE    CLOUDY    32  29  88 SW5       29.78R WCI  27
WOODRUFF       CLOUDY    32  29  88 SW5       29.78R WCI  27
RHINELANDER    LGT SNOW  30  27  88 SW7       29.79R FOG     WCI  23
EAGLE RIVER    CLOUDY    31  29  94 SW8       29.78R WCI  23
LAND O LAKES   CLOUDY    32  29  90 SW5       29.77R WCI  27
PHILLIPS       CLOUDY    30  28  90 SW5       29.77S FOG     WCI  25
TOMAHAWK       LGT SNOW  30  28  92 CALM      29.80R
MEDFORD        CLOUDY    31  28  88 S5        29.80R WCI  26
MERRILL        CLOUDY    32  30  93 SW3       29.81S
$$

WIZ029-030-035-036-043>047-252300-
CENTRAL WISCONSIN

CITY           SKY/WX    TMP DP  RH WIND       PRES   REMARKS
WAUSAU         CLOUDY    33  27  78 S7        29.81R WCI  27
MOSINEE        CLOUDY    32  30  93 S7        29.84R WCI  26
MARSHFIELD     CLOUDY    34  28  79 S6        29.82R WCI  29
STEVENS POINT  CLOUDY    32  28  84 S5        29.85R WCI  27
WAUPACA        CLOUDY    36  30  78 S3        29.86S
WAUTOMA        MOCLDY    38  31  76 CALM      29.86R
WISC RAPIDS    CLOUDY    35  28  75 S3        29.85R
CAMP DOUGLAS   MOCLDY    37  35  93 SE5       29.83R WCI  34
$$

WIZ011>013-019>022-031-037>040-048>050-252300-
NORTHEAST WISCONSIN

CITY           SKY/WX    TMP DP  RH WIND       PRES   REMARKS
ANTIGO         CLOUDY    30  29  96 SW7       29.82R WCI  23
SHAWANO        CLOUDY    37  29  75 SW5       29.86R WCI  33
OCONTO         CLOUDY    35  30  84 SW7       29.86R WCI  29
STURGEON BAY   CLOUDY    34  28  80 SW8       29.88R WCI  27
GREEN BAY      CLOUDY    36  30  79 SW7       29.87R WCI  30
MANITOWOC      CLOUDY    37  31  78 SW6       29.90R WCI  32
APPLETON       MOCLDY    34  30  86 SW3       29.87R
CLINTONVILLE   CLOUDY    34  30  86 SW6       29.86R WCI  29
OSHKOSH        MOCLDY    37  31  78 S7        29.87R WCI  32
$$

WIZ032>034-041-042-053>061-252300-
SOUTHWEST WISCONSIN

CITY           SKY/WX    TMP DP  RH WIND       PRES   REMARKS
LA CROSSE      PTCLDY    39  29  67 S6        29.81R WCI  35
SPARTA         MOCLDY    38  29  71 SE5       29.83S WCI  34
VIROQUA        PTCLDY    37  32  82 S8        29.80S WCI  31
BOSCOBEL       MOCLDY    43  30  60 S5        29.84R
PRAIRIE DU CHI MOCLDY    42  30  60 SE5       29.81S
PLATTEVILLE    PTCLDY    41  33  73 CALM      29.85R
$$

WIZ056-057-062-063-064-067-068-252300-
SOUTH CENTRAL WISCONSIN

CITY           SKY/WX    TMP DP  RH WIND       PRES   REMARKS
REEDSBURG      MOCLDY    38  31  76 S5        29.84R WCI  35
BARABOO/DELLS  MOCLDY    37  31  78 S5        29.84R WCI  33
LONE ROCK      CLOUDY    44  30  57 S3        29.85R
MINERAL POINT  CLOUDY    41  32  70 S10       29.84R
MADISON        CLOUDY    41  31  67 S9        29.86S
MIDDLETON      CLOUDY    42  32  66 S9        29.86S
WATERTOWN      PTCLDY    39  32  76 S8        29.89R WCI  34
MONROE         CLOUDY    41  34  75 S14       29.86S
JANESVILLE     CLEAR     43  32  65 S9        29.90R
$$

WIZ051-052-058>065-066-070>072-252300-
SOUTHEAST WISCONSIN

CITY           SKY/WX    TMP DP  RH WIND       PRES   REMARKS
MILWAUKEE      MOCLDY    40  30  67 S10       29.94R WCI  33
WAUKESHA       MOCLDY    37  30  75 S12       29.93R WCI  30
MILWAUKEE/TIMM NOT AVBL
RACINE         CLEAR     40  31  70 S8        29.95R WCI  34
BURLINGTON     MOCLDY    38  32  79 S9        29.93R WCI  31
KENOSHA        PTCLDY    41  31  67 SW9       29.94R
FOND DU LAC    MOCLDY    38  31  76 S8        29.88R WCI  32
SHEBOYGAN      CLOUDY    38  30  73 SW9       29.89R WCI  31
WEST BEND      MOCLDY    37  30  75 S6        29.89R WCI  33
JUNEAU         PTCLDY    37  32  81 S10       29.89S WCI  30
$$

LSZ147-162-252300-
LAKE SUPERIOR

STATION/POSITION TIME  TEMP    WIND        PRES    WAVE
                       AIR SEA DIR/SP/G            HT/PER
                 (UTC) (F)     (DEG/KT/KT) (MB)    (FT/S)
DEVILS ISLAND    2200   35     240/ 14/ 17 1009.5R
PORT WING        2100   34     230/  7/  9 1008.8R
SAXON HARBOR     2140   35      CALM  /  6 1009.1R
$$

LMZ867-665-643>646-252300-
LAKE MICHIGAN

STATION/POSITION TIME  TEMP    WIND        PRES    WAVE
                       AIR SEA DIR/SP/G            HT/PER
                 (UTC) (F)     (DEG/KT/KT) (MB)    (FT/S)
CHAMBERS ISLAND  2100   35     190/  6/ 15 1010.5R
NORTHPORT PIER   2201   35     230/  4/ 15 1011.2R
SISTER BAY       2113          250/ 16/ 18   N/A
ALGOMA LAKESHORE 2100          260/ 15/ 19   N/A
KEWAUNEE LAKESHO 2100   36     230/  4/  9 1010.6R
SHEBOYGAN LAKESH 2200   40 37  200/ 11/ 12 1013.2R
PORT WASHINGTON  2140   40     210/  5/  9 1013.5R
MILWAUKEE LAKESH 2100   40     220/ 15/ 19   N/A
KENOSHA   LAKESH 2200   42     200/  8/ 14 1014.2R
$$

TC  - TEMPERATURE IN CELSIUS
VSB - VISIBILITY IN STATUTE MILES
WCI - WIND CHILL INDEX
HX  - HEAT INDEX



USA.gov is the U.S. government's official web portal to all federal, state and local government web resources and services.